ROMMA est une association bénévole à but non lucratif. Votre soutien est indispensable : ADHERER à ROMMA ou FAIRE un DON

Chambon - (38, Isère)

Oisans (2460 m)   Longitude: 06° 10' 42" E   Latitude: 45° 01' 32" N Station partenaire n°803
 

Détail journalier du     <<     >>

Température Humidité Vent Dir Rafale Dir. rafale Neige 1 Neige 2
Heure (°C) (%) (km/h) (km/h) (cm) (cm)
01:00 -4.43223NE35NE172203
02:00 -4.93419NNE34NE172203
03:00 -4.32917NNE31NE172203
04:00 -5.2317NNE22NE172203
05:00 -4.7285N16N172203
06:00 -4.8295SO14O172203
07:00 -5.1304SO9SO172203
08:00 -4.9283N6SO172203
09:00 -1.2223N8S171203
10:00 -0.1222S6O171203
11:00 -1.4273N8N171203
12:00 -0.5294O9O171203
13:00 1.5303OSO10OSO171203
14:00 0.4382SO11SO171203
15:00 -0.7525SSO16OSO171203
16:00 -0.3536SO15SO171203
17:00 0.1534SO12SO171203
18:00 -2.1653SE11OSO171203
19:00 -3.6751ENE6ENE171203
20:00 -4.9833NE8NE171203
21:00 -5.5862NE9NE172203
22:00 -5.6862NE9NE171203
23:00 -5.3863SO7OSO171203
minuit -5.0783N8OSO171203

Graphique du 27-03-2019

 

Serveur OMMA